Regional Weather Roundup
Issued by NWS

Home | Current Version | Previous Version | Graphics & Text | Print | Product List | Glossary On
Versions: 1 2 3 4 5 6 7 8 9 10 11 12 13 14 15 16 17 18 19 20 21 22 23 24 25 26 27 28 29 30 31 32 33 34 35 36 37 38 39 40 41 42 43 44 45 46 47 48 49 50
000
ASUS43 KLSX 280507
RWRMO

WEATHER SUMMARY FOR MISSOURI
NATIONAL WEATHER SERVICE SPRINGFIELD MO
1200 AM CDT FRI AUG 28 2015

NOTE: "FAIR" INDICATES FEW OR NO CLOUDS BELOW 12,000 FEET WITH NO
       SIGNIFICANT WEATHER AND/OR OBSTRUCTIONS TO VISIBILITY.
       CURRENT SKY AND/OR WEATHER CONDITIONS ARE NOT AVAILABLE FOR
       CHILLICOTHE AND FARMINGTON.

MOZ001>031-035>038-043-044-053-054-280600-
...NORTHERN AND WESTERN MISSOURI...

CITY           SKY/WX    TMP DP  RH WIND       PRES   REMARKS
KANSAS CTY INT CLOUDY    70  64  81 S7        30.00R
KANSAS C DTWN  CLOUDY    72  66  81 S3        29.99R
LEE`S SUMMIT   CLOUDY    70  64  81 VRB6      30.00F
ST JOSEPH      CLOUDY    70  65  84 SE9       29.97S
CHILLICOTHE      N/A     67  62  84 SE6       30.03F
KIRKSVILLE     PTCLDY    62  58  86 SE7       30.08S

$$
MOZ066>068-077>081-088>096-101>105-280600-
...SOUTHWEST MISSOURI...

CITY           SKY/WX    TMP DP  RH WIND       PRES   REMARKS
SPRINGFIELD    PTCLDY    68  60  75 SE13      30.05F
JOPLIN         PTCLDY    70  64  81 SE8       30.02F

$$
MOZ032>034-039>042-045>050-055>058-069>072-280600-
...CENTRAL MISSOURI...

CITY           SKY/WX    TMP DP  RH WIND       PRES   REMARKS
COLUMBIA       CLEAR     64  61  90 SE7       30.06F
JEFFERSON CITY CLEAR     66  60  81 E9        30.06S
ROLLA          CLEAR     63  60  90 SE8       30.07F
SEDALIA        PTCLDY    65  60  84 SE7       30.05S
WHITEMAN AFB   CLEAR     67  62  85 S8        30.01F
OSAGE BEACH    CLEAR     64  57  77 SE5       30.06F

$$
MOZ051-052-059>065-280600-
...EAST CENTRAL MISSOURI...

CITY           SKY/WX    TMP DP  RH WIND       PRES   REMARKS
ST LOUIS INTL  PTCLDY    68  57  68 CALM      30.10R
SPIRIT OF STL  CLEAR     61  60  97 CALM      30.08S
ST CHARLES     CLEAR     64  60  87 E3        30.08S

$$
MOZ072>076-082>087-097>100-106>115-280600-
...SOUTH CENTRAL AND SOUTHEAST MISSOURI...

CITY           SKY/WX    TMP DP  RH WIND       PRES   REMARKS
CAPE GIRARDEAU CLEAR     59  58  96 CALM      30.09R
FARMINGTON     CLEAR     59  57  94 CALM      30.13R
POPLAR BLUFF   CLEAR     60  59  96 CALM      30.07S
WEST PLAINS    CLEAR     63  57  81 CALM      30.12S

$$



USA.gov is the U.S. government's official web portal to all federal, state and local government web resources and services.